{"data":{"norad_id":49144,"intl_designator":"2021-082Q","name":"STARLINK-3100","alt_names":[],"object_type":"PAYLOAD","status":"ACTIVE","operator":null,"country":"US","launch_date":"2021-09-14","launch_site_code":"AFWTR","launch_vehicle":null,"mission":null,"orbit_class":"UNKNOWN","rcs_meters":null,"size_class":null,"mass_kg":null,"dimensions":null,"purposes":["comms"],"wikipedia_slug":null,"has_3d_model":false,"image_url":null,"decayed_at":null,"tle_current":{"epoch":"2026-05-25T03:23:55.156704Z","epoch_age_seconds":73548,"freshness":"FRESH","line1":"1 49144U 21082Q   26145.14161061  .00000662  00000+0  63252-4 0  9998","line2":"2 49144  69.9994 101.6841 0003330 267.7927  92.2851 14.98330712257436","mean_motion":14.98330712,"eccentricity":0.000333,"inclination_deg":69.9994,"raan_deg":101.6841,"arg_perigee_deg":267.7927,"mean_anomaly_deg":92.2851,"bstar":6.3252e-5,"rev_number":25743,"period_min":96.106953456081,"perigee_km":569.73927564454,"apogee_km":574.36810264351,"semimajor_km":6950.190689144,"source":"CELESTRAK","updated_at":"2026-05-25T13:38:16.786236Z"}}}